www.pogodaiklimat.ru
ПОГОДА в Чатеме
Время
и дата
09:52 28.09
10:52 28.09
11:52 28.09
12:52 28.09
13:52 28.09
14:52 28.09
15:52 28.09
16:52 28.09
17:52 28.09
18:52 28.09
19:52 28.09
20:52 28.09
21:52 28.09
22:52 28.09
23:52 28.09
00:52 29.09
01:52 29.09
02:52 29.09
03:52 29.09
04:52 29.09
05:52 29.09
06:52 29.09
07:52 29.09
08:52 29.09
09:02 29.09
09:18 29.09
09:52 29.09
10:52 29.09
11:15 29.09
11:24 29.09
11:52 29.09
12:52 29.09
13:52 29.09
14:52 29.09
15:52 29.09
16:52 29.09
17:52 29.09
18:52 29.09
19:52 29.09
20:52 29.09
21:52 29.09
22:52 29.09
23:52 29.09
00:52 30.09
01:52 30.09
02:52 30.09
03:52 30.09
04:52 30.09
Ветер
(напр.,м/с)
Видим. Явления Облачность Т
(С)
Тd
(С)
f
(%)
Тe
(С)
Тes
(С)
Комфортность P
(гПа)
Po
(гПа)
Тmin
(С)
Tmax
(С)
R
(мм)
R24
(мм)
S
(см)
16 км ясно +20.6 +10.0 51 +22 +30 комфорт 1017.2 1014.7
ЮЗ 4
{10}
16 км 2/2 1380 м +20.6 +9.4 49 +22 +27 комфорт 1017.3 1014.7
ЮЗ 5
{9}
16 км ясно +21.1 +10.0 49 +23 +28 комфорт 1017.7 1015.1
нст 3
{8}
16 км ясно +20.6 +11.1 54 +23 +32 комфорт 1017.7 1015.1 +15.6 +21.7
ЮЗ 4
{8}
16 км 8/8 1080 м +21.1 +11.7 55 +23 +24 комфорт 1017.7 1015.1
нст 2 16 км 2/2 1320 м +19.4 +12.2 63 +21 +27 комфорт 1018.3 1015.8
ЮЗ 3 16 км ясно +19.4 +11.7 61 +21 +24 комфорт 1018.7 1016.1
нст 2 16 км ясно +18.3 +12.2 68 +19 +21 1019.3 1016.8
нст 2 16 км ясно +17.2 +12.2 72 +18 +18 1020.0 1017.4
З 2 16 км ясно +17.2 +12.8 75 +18 +18 1020.7 1018.1 +16.7 +21.7
З 2 16 км ясно +17.2 +13.3 78 +18 +18 1021.5 1018.8
штиль 0 16 км ясно +16.1 +13.3 83 +16 +16 1021.5 1018.8
СЗ 2 16 км ясно +15.6 +12.8 83 +15 +15 1021.9 1019.1
штиль 0 16 км ясно +15.6 +12.2 80 +15 +15 1022.0 1019.5
С 2 16 км ясно +16.1 +12.2 78 +16 +16 1022.2 1019.5
штиль 0 16 км ясно +16.1 +12.2 78 +16 +16 1022.8 1020.1 +15.6 +17.2
нст 2 16 км ясно +15.6 +11.7 78 +16 +16 1022.9 1020.5
нст 2 16 км ясно +15.0 +11.1 77 +15 +15 1023.1 1020.5
нст 2 16 км ясно +14.4 +11.1 81 +14 +14 1023.7 1021.2
нст 2 16 км ясно +14.4 +11.1 81 +14 +14 1024.5 1021.8
нст 2 16 км ясно +13.9 +11.1 83 +13 +13 1024.8 1022.2
нст 2 16 км ясно +15.6 +11.1 75 +16 +16 1025.2 1022.5 +13.9 +16.1
нст 3 16 км ясно +16.7 +11.1 70 +16 +17 1025.6 1022.9
С 4 16 км 5/5 660 м +17.8 +11.1 65 +18 +19 1026.3 1023.5
нст 3 16 км 8/8 660 м +17.8 +11.1 65 +18 +19 1023.5
С 4
{8}
16 км 5/5 690 м +17.8 +10.6 63 +18 +20 1023.9
С 4 16 км 8/8 690 м +18.3 +10.6 61 +18 +19 1026.2 1023.5
СВ 4 16 км 8/8 720 м +17.8 +10.6 63 +18 +19 1026.4 1023.9
СВ 5
{8}
16 км 10/10 750 м +17.8 +10.6 63 +17 +17 1023.9
нст 3
{9}
16 км 10/10 750 м +17.8 +10.6 63 +18 +18 1023.9
СВ 5
{9}
16 км 8/8 720 м +18.3 +10.0 58 +18 +19 1026.6 1023.9
СВ 3 16 км 2/2 840 м +16.7 +9.4 62 +17 +24 1026.6 1023.9 +15.6 +18.9
СВ 4
{8}
16 км ясно +16.1 +10.0 67 +15 +22 1026.6 1023.9
СВ 4 16 км 2/2 690 м +16.7 +9.4 62 +16 +20 1026.9 1024.2
СВ 4
{7}
16 км ясно +16.1 +9.4 64 +15 +18 1026.9 1024.2
СВ 2 16 км ясно +15.6 +9.4 67 +16 +17 1027.1 1024.5
СВ 2 16 км ясно +15.0 +9.4 69 +15 +15 1027.2 1024.5
СВ 2 16 км ясно +14.4 +9.4 72 +14 +14 1027.1 1024.5 +14.4 +17.2
С 2 16 км ясно +13.9 +9.4 74 +13 +13 1027.3 1024.9
штиль 0 16 км ясно +12.2 +9.4 83 +12 +12 1027.8 1025.2
штиль 0 16 км ясно +11.7 +8.9 83 +11 +11 1028.0 1025.6
штиль 0 16 км ясно +11.1 +8.9 86 +10 +10 1027.8 1025.2
С 2 16 км ясно +11.1 +8.9 86 +10 +10 1027.6 1024.9
С 2 16 км ясно +11.1 +8.9 86 +10 +10 1027.5 1024.9 +10.6 +14.4
С 2 16 км ясно +11.7 +8.3 80 +11 +11 1027.3 1024.9
С 2 16 км ясно +11.1 +8.9 86 +10 +10 1027.1 1024.5
СВ 2 16 км 5/5 780 м +13.3 +9.4 77 +13 +13 1027.1 1024.5
СВ 3 16 км 8/8 990 м +14.4 +7.8 65 +14 +14 1027.3 1024.5
Местоположение метеостанции Chatham Municipal Airport: широта 41.6875 долгота -69.9933 высота над уровнем моря 20 м.
В архиве по умолчанию представлена погода в Чатеме за последние 1-2 суток. Обновление информации о фактической погоде в базе происходит ежечасно! Архивные данные за месяц целиком и за предыдущие месяцы Вы можете получить, выбрав интересующий диапазон дат из раскрывающегося списка и нажав кнопку "Ввод!".
Внимание! Архив погоды МЕТАР в базе сайта по станциям, не включенным в климатический монитор, хранится не более 60 дней. Нет смысла пытаться выбрать более раннюю дату.
*Определитесь, кто Вы:
Внимание! Время в таблицах - местное (без учета летнего времени). Для получения всемирного времени необходимо вычесть поправку, которая равна -5 ч.
Смотрите также архив погоды в соседних городах и на ближайших метеорологических станциях:
Партнеры нашего сайта:      
Пояснения к столбцам:
  • Ветер - указаны скорость ветра в м/с - средняя за 10 мин, порывы в срок и между сроками (в фигурных скобках) и направление, откуда дует ветер: С - северный,
  • СВ - северо-восточный, В - восточный, ЮВ - юго-восточный, Ю - южный, ЮЗ - юго-западный, З - западный, СЗ - северо-западный.
  • Видимость - горизонтальная дальность видимости в метрах или километрах. При видимости от 1 до 10 км при отсутствии осадков обычно наблюдается дымка, при ухудшении видимости до 1 км и менее - туман. В сухую погоду видимость может ухудшаться дымом, пылью или мглою.
  • Явления - указаны атмосферные явления, наблюдавшиеся в срок или в последний час перед сроком; фигурными скобками обозначены явления, наблюдавшиеся между сроками (за 1-3 часа до срока); квадратными скобками обозначены град или гололедные отложения с указанием их диаметра в мм.
  • Облачность - указаны через наклонную черту общая и нижняя облачность в баллах и высота нижней границы облаков в метрах; квадратными скобками обозначены формы облаков: Ci - перистые, Cs - перисто-слоистые, Cc - перисто-кучевые, Ac - высококучевые, As - высокослоистые, Sc - слоисто-кучевые, Ns - слоисто-дождевые, Cu - кучевые, Cb - кучево-дождевые. Подробнее классификацию облаков см. в Атласе облаков (PDF).
  • T - Температура воздуха - температура, измеренная на высоте 2 м над землей.
  • Td - Температура точки росы - температура, при понижении до которой содержащийся в воздухе водяной пар достигнет насыщения.
  • f - Относительная влажность воздуха - влажноcть воздуха, измеренная на высоте 2 м над землей.
  • Te - Эффективная температура - температура, которую ощущает одетый по сезону человек в тени. Характеристика душности погоды. При расчете учитывается влияние влажности воздуха и скорости ветра на теплоощущения человека.
  • Tes - Эффективная температура на солнце - температура, которую ощущает человек, с поправкой на солнечный нагрев. Характеристика знойности погоды. Зависит от высоты солнца над горизонтом, облачности и скорости ветра. Ночью, в пасмурную погоду, а также при ветре 12 м/с и более поправка равна нулю.
  • P - Атмосферное давление - приведенное к уровню моря атмосферное давление.
  • Po - Атмосферное давление - измеренное на уровне метеостанции атмосферное давление.
  • Tmin - Минимальная температура - минимум температуры воздуха на высоте 2 м над землей.
  • Tmax - Максимальная температура - максимум температуры воздуха на высоте 2 м над землей.
  • R - Количество осадков - Количество выпавших осадков за период времени, мм. При наведении курсора мыши на число - период времени, за который выпало указанное количество осадков.
  • R24 - Количество осадков - Количество выпавших осадков за 24 часа, мм.
  • S - Снежный покров - Высота снежного покрова, см. При наведении курсора мыши на число - состояние снежного покрова и степень покрытия местности в баллах.